TimePST,TemperatureF,Dew PointF,Humidity,Sea Level PressureIn,VisibilityMPH,Wind Direction,Wind SpeedMPH,Gust SpeedMPH,PrecipitationIn,Events,Conditions,WindDirDegrees,DateUTC
12:15 AM,44.6,44.6,100,30.25,10.0,Calm,Calm,-,N/A,,Clear,0,2013-02-04 08:15:00
12:35 AM,44.6,44.6,100,30.25,9.0,Calm,Calm,-,N/A,,Scattered Clouds,0,2013-02-04 08:35:00
12:55 AM,42.8,42.8,100,30.25,5.0,Calm,Calm,-,N/A,,Mostly Cloudy,0,2013-02-04 08:55:00
1:15 AM,41.0,39.2,93,30.24,3.0,SSE,3.5,-,N/A,,Mostly Cloudy,160,2013-02-04 09:15:00
2:55 AM,42.8,42.8,100,30.22,8.0,SE,5.8,-,N/A,,Clear,140,2013-02-04 10:55:00
3:15 AM,42.8,41.0,93,30.22,6.0,SSE,5.8,-,N/A,,Partly Cloudy,150,2013-02-04 11:15:00
3:35 AM,41.0,39.2,93,30.20,6.0,SE,3.5,-,N/A,,Clear,130,2013-02-04 11:35:00
3:55 AM,41.0,41.0,100,30.20,9.0,SSE,3.5,-,N/A,,Partly Cloudy,160,2013-02-04 11:55:00
4:15 AM,41.0,41.0,100,30.20,10.0,SSE,3.5,-,N/A,,Clear,150,2013-02-04 12:15:00
4:35 AM,42.8,42.8,100,30.20,10.0,Calm,Calm,-,N/A,,Clear,0,2013-02-04 12:35:00
4:55 AM,41.0,41.0,100,30.20,9.0,Calm,Calm,-,N/A,,Clear,0,2013-02-04 12:55:00
5:15 AM,39.2,39.2,100,30.20,7.0,SE,5.8,-,N/A,,Partly Cloudy,130,2013-02-04 13:15:00
5:35 AM,39.2,39.2,100,30.18,1.5,SSE,3.5,-,N/A,,Overcast,150,2013-02-04 13:35:00
5:55 AM,39.2,39.2,100,30.18,1.8,SE,4.6,-,N/A,,Overcast,140,2013-02-04 13:55:00
6:15 AM,39.2,39.2,100,30.17,8.0,SE,5.8,-,N/A,,Mostly Cloudy,130,2013-02-04 14:15:00
6:35 AM,39.2,39.2,100,30.18,5.0,SE,4.6,-,N/A,,Clear,130,2013-02-04 14:35:00
6:55 AM,39.2,39.2,100,30.18,9.0,SE,5.8,-,N/A,,Clear,130,2013-02-04 14:55:00
7:15 AM,39.2,39.2,100,30.17,1.2,SE,5.8,-,N/A,,Mostly Cloudy,140,2013-02-04 15:15:00
7:35 AM,39.2,39.2,100,30.17,0.5,SE,6.9,-,N/A,,Overcast,130,2013-02-04 15:35:00
7:55 AM,39.2,37.4,93,30.17,0.2,SE,5.8,-,N/A,,Overcast,130,2013-02-04 15:55:00
8:15 AM,39.2,39.2,100,30.17,9.0,SE,4.6,-,N/A,,Scattered Clouds,140,2013-02-04 16:15:00
8:35 AM,41.0,39.2,93,30.17,10.0,SE,3.5,-,N/A,,Clear,140,2013-02-04 16:35:00
8:55 AM,42.8,42.8,100,30.17,10.0,SE,4.6,-,N/A,,Clear,130,2013-02-04 16:55:00
9:15 AM,42.8,42.8,100,30.17,10.0,SE,4.6,-,N/A,,Clear,130,2013-02-04 17:15:00
9:35 AM,42.8,41.0,93,30.17,10.0,SSE,4.6,-,N/A,,Clear,160,2013-02-04 17:35:00
9:55 AM,44.6,42.8,93,30.17,10.0,SE,3.5,-,N/A,,Clear,140,2013-02-04 17:55:00
10:15 AM,44.6,44.6,100,30.16,10.0,SE,4.6,-,N/A,,Clear,140,2013-02-04 18:15:00
10:35 AM,44.6,42.8,93,30.16,10.0,SSE,6.9,-,N/A,,Clear,160,2013-02-04 18:35:00
10:55 AM,46.4,44.6,93,30.15,10.0,SSE,6.9,-,N/A,,Clear,150,2013-02-04 18:55:00
11:15 AM,48.2,44.6,87,30.16,10.0,South,4.6,-,N/A,,Clear,180,2013-02-04 19:15:00
11:35 AM,48.2,44.6,87,30.15,10.0,West,4.6,-,N/A,,Clear,260,2013-02-04 19:35:00
11:55 AM,50.0,44.6,82,30.15,10.0,West,5.8,-,N/A,,Clear,270,2013-02-04 19:55:00
12:15 PM,50.0,44.6,82,30.14,10.0,WSW,6.9,-,N/A,,Clear,250,2013-02-04 20:15:00
12:35 PM,50.0,44.6,82,30.13,10.0,West,5.8,-,N/A,,Clear,260,2013-02-04 20:35:00
12:55 PM,51.8,44.6,76,30.12,10.0,WSW,8.1,-,N/A,,Clear,250,2013-02-04 20:55:00
1:15 PM,51.8,44.6,76,30.12,10.0,WSW,8.1,-,N/A,,Mostly Cloudy,250,2013-02-04 21:15:00
1:35 PM,51.8,44.6,76,30.12,10.0,WSW,10.4,-,N/A,,Overcast,250,2013-02-04 21:35:00
1:55 PM,50.0,44.6,82,30.11,10.0,WSW,8.1,-,N/A,,Overcast,250,2013-02-04 21:55:00
2:15 PM,50.0,44.6,82,30.11,10.0,WSW,6.9,-,N/A,,Overcast,250,2013-02-04 22:15:00
2:35 PM,50.0,46.4,87,30.10,10.0,West,8.1,-,N/A,,Overcast,260,2013-02-04 22:35:00
2:55 PM,50.0,44.6,82,30.10,10.0,WSW,6.9,-,N/A,,Overcast,250,2013-02-04 22:55:00
3:15 PM,48.2,44.6,87,30.09,10.0,South,4.6,-,N/A,,Overcast,190,2013-02-04 23:15:00
3:35 PM,50.0,44.6,82,30.09,10.0,SSW,9.2,-,N/A,,Overcast,210,2013-02-04 23:35:00
3:55 PM,48.2,44.6,87,30.09,10.0,SW,5.8,-,N/A,,Overcast,220,2013-02-04 23:55:00
4:15 PM,48.2,44.6,87,30.10,10.0,SW,9.2,-,N/A,,Overcast,230,2013-02-05 00:15:00
4:35 PM,48.2,44.6,87,30.09,10.0,SW,6.9,-,N/A,,Overcast,220,2013-02-05 00:35:00
4:55 PM,48.2,44.6,87,30.09,10.0,WSW,5.8,-,N/A,,Overcast,240,2013-02-05 00:55:00
5:15 PM,48.2,44.6,87,30.08,10.0,WSW,6.9,-,N/A,,Overcast,240,2013-02-05 01:15:00
5:35 PM,48.2,44.6,87,30.07,10.0,South,3.5,-,N/A,,Overcast,180,2013-02-05 01:35:00
5:55 PM,46.4,44.6,93,30.07,10.0,South,5.8,-,N/A,,Overcast,180,2013-02-05 01:55:00
6:15 PM,46.4,44.6,93,30.05,10.0,South,5.8,-,N/A,,Overcast,190,2013-02-05 02:15:00
6:35 PM,46.4,44.6,93,30.05,10.0,South,4.6,-,N/A,,Overcast,170,2013-02-05 02:35:00
6:55 PM,46.4,44.6,93,30.05,10.0,South,4.6,-,N/A,,Overcast,170,2013-02-05 02:55:00
7:15 PM,46.4,44.6,93,30.04,10.0,South,5.8,-,N/A,,Overcast,170,2013-02-05 03:15:00
7:35 PM,46.4,44.6,93,30.03,10.0,South,5.8,-,N/A,,Overcast,170,2013-02-05 03:35:00
7:55 PM,46.4,44.6,93,30.04,10.0,SW,5.8,-,N/A,,Overcast,220,2013-02-05 03:55:00
8:15 PM,46.4,44.6,93,30.05,10.0,SW,9.2,-,N/A,,Overcast,220,2013-02-05 04:15:00
8:35 PM,48.2,44.6,87,30.05,10.0,SSW,10.4,-,N/A,,Overcast,210,2013-02-05 04:35:00
8:55 PM,48.2,44.6,87,30.05,10.0,SSW,10.4,17.3,N/A,,Overcast,210,2013-02-05 04:55:00
9:15 PM,48.2,44.6,87,30.05,10.0,SSW,10.4,-,N/A,,Overcast,210,2013-02-05 05:15:00
9:35 PM,48.2,44.6,87,30.04,10.0,South,11.5,17.3,N/A,,Overcast,190,2013-02-05 05:35:00
9:55 PM,48.2,42.8,82,30.05,10.0,South,9.2,-,N/A,,Overcast,190,2013-02-05 05:55:00
10:15 PM,48.2,42.8,82,30.05,10.0,South,9.2,-,N/A,,Overcast,190,2013-02-05 06:15:00
10:35 PM,48.2,42.8,82,30.05,10.0,SSW,6.9,-,N/A,,Overcast,200,2013-02-05 06:35:00
10:55 PM,48.2,42.8,82,30.05,10.0,SSW,10.4,16.1,N/A,,Overcast,200,2013-02-05 06:55:00
11:15 PM,48.2,42.8,82,30.05,10.0,SSW,10.4,-,N/A,,Overcast,200,2013-02-05 07:15:00
11:35 PM,48.2,42.8,82,30.06,10.0,SSW,8.1,16.1,N/A,,Overcast,200,2013-02-05 07:35:00
11:55 PM,48.2,42.8,82,30.05,10.0,SSW,10.4,20.7,N/A,,Overcast,200,2013-02-05 07:55:00